Location: *
(46.1333°S, 161.2167°W)
Time: 03:18:59
(UTC+00:00)

Cosmos 2298 Rocket - Pass Details

Date: 15 July 2020
Orbit: 775 x 784 km, 74.0° (Epoch: 10 August)

Event Time Altitude Azimuth Distance (km) Brightness Sun altitude
Exits shadow 16:53:44 - 205° (SSW) 2,462 6.2 -14.8°
Reaches altitude 10° 16:54:00 10° 206° (SSW) 2,363 6.1 -14.7°
Maximum altitude 16:59:21 71° 288° (WNW) 833 4.0 -13.8°
Drops below altitude 10° 17:04:37 10° 11° (N) 2,331 6.9 -13.0°
Sets 17:06:59 0° 13° (NNE) 3,251 7.7 -12.6°
